Location: Marcé
(47.5801°N, 0.3280°W)
Time: 09:50:24
(UTC+01:00)

FENGYUN 1C DEB - Visible Passes

Search period start: 30 November 2022 00:00
Search period end: 10 December 2022 00:00
Orbit: 775 x 1141 km, 99.0° (Epoch: 28 November)

Date Brightness Start Highest point End Pass type
(mag) Time Alt. Az. Time Alt. Az. Time Alt. Az.
30 Nov ? 05:20:08 10° ENE 05:22:12 12° NE 05:24:16 10° NNE visible
30 Nov ? 06:56:58 10° SE 07:03:32 46° ENE 07:09:57 10° N visible
01 Dec ? 05:37:52 10° E 05:41:32 15° NE 05:45:08 10° NNE visible
01 Dec ? 07:16:20 10° SE 07:23:10 61° ENE 07:29:49 10° N visible
02 Dec ? 05:56:14 10° E 06:00:55 20° NE 06:05:29 10° N visible
02 Dec ? 07:35:52 10° SSE 07:42:51 80° ENE 07:49:38 10° NNW visible
03 Dec ? 06:14:54 10° ESE 06:20:22 26° ENE 06:25:39 10° N visible
03 Dec ? 07:55:36 10° SSE 08:02:36 79° WSW 08:09:22 10° NNW visible
04 Dec ? 06:33:50 10° ESE 06:39:52 33° ENE 06:45:41 10° N visible
05 Dec ? 05:16:57 10° NE 05:18:06 10° NE 05:19:14 10° NE visible
05 Dec ? 06:52:58 10° SE 06:59:26 43° ENE 07:05:38 10° N visible
06 Dec ? 05:34:11 10° ENE 05:37:25 14° NE 05:40:34 10° NNE visible
06 Dec ? 07:12:18 10° SE 07:19:03 57° ENE 07:25:30 10° N visible
07 Dec ? 05:52:25 10° E 05:56:48 18° NE 06:01:00 10° NNE visible
07 Dec ? 07:31:48 10° SSE 07:38:43 76° ENE 07:45:19 10° NNW visible
08 Dec ? 06:11:02 10° ESE 06:16:13 24° ENE 06:21:12 10° N visible
08 Dec ? 07:51:30 10° SSE 07:58:27 82° WSW 08:05:03 10° NNW visible
09 Dec ? 06:29:54 10° ESE 06:35:43 31° ENE 06:41:15 10° N visible
